[[{"header":{"parameterUnit":"m.s-1","parameterCategory":1,"la1":30.2991,"la2":30.254,"lo1":-89.0895,"lo2":-89.0444,"dy":0.0017,"dx":0.0017,"nx":28,"ny":28,"refTime":"2023-11-07T09:00:00:Z","depth":0,"parameterNumber":2,"parameterNumberName":"U-component_of_WINDS"},"data":[0,0,0,0,0,0,0,0,0,0,0,0,0,0,0,0,0,0,0,0,0,0,0,0,0,0,0,0,0,0,0,0,0,0,0,0,0,0,0,0,0,0,0,0,0,0,0,0,0,0,0,0,0,0,0,0,0,0,-0.1681,-0.168,0,-0.164,-0.164,-0.1639,-0.1612,-0.1612,-0.1612,-0.1612,-0.157,-0.1569,-0.1568,0,0,0,0,0,0,0,0,0,0,0,0,0,-0.1736,-0.1735,-0.1681,-0.168,-0.168,-0.164,-0.1639,-0.1639,-0.1612,-0.1612,-0.1612,-0.1612,-0.1571,-0.1569,-0.1568,0,0,0,0,0,0,0,0,0,0,0,0,0,-0.1705,-0.1735,-0.1681,-0.1662,-0.1659,-0.164,-0.1639,-0.1639,-0.1612,-0.1612,-0.1612,-0.1612,-0.1571,-0.157,-0.1568,-0.1565,0,0,-0.1564,-0.1563,0,0,0,0,0,0,0,0,-0.1707,-0.1703,-0.1665,-0.1663,-0.166,-0.1631,-0.1644,-0.1614,-0.1612,-0.163,-0.1612,-0.1611,-0.1591,-0.1588,-0.1581,-0.1563,-0.1561,-0.1564,-0.1563,-0.1562,-0.1562,0,0,0,0,0,0,0,-0.1709,-0.1705,-0.1665,-0.1664,-0.1662,-0.1655,-0.1651,-0.1638,-0.1612,-0.1629,-0.1627,-0.1622,-0.1589,-0.1582,-0.1579,-0.156,-0.1564,-0.1563,-0.1562,-0.1561,-0.1539,-0.1539,0,0,0,0,0,0,-0.1714,-0.1707,-0.1666,-0.1663,-0.1684,-0.1654,-0.1649,-0.1641,-0.1612,-0.1608,-0.1622,-0.1621,-0.1585,-0.1581,-0.1578,-0.1572,-0.1562,-0.1561,-0.156,-0.1538,-0.1539,-0.1539,0,0,0,0,0,0,-0.1716,-0.1711,-0.1667,-0.1684,-0.1678,-0.1654,-0.1644,-0.164,-0.1633,-0.1608,-0.1603,-0.162,-0.1584,-0.158,-0.1568,-0.157,-0.156,-0.1559,-0.1538,-0.1538,-0.1539,-0.1561,0,0,0,0,0,0,-0.1717,-0.1711,-0.171,-0.1685,-0.1678,-0.1658,-0.1644,-0.1639,-0.163,-0.1628,-0.1604,-0.16,-0.1584,-0.1571,-0.1567,-0.1568,-0.1558,-0.1538,-0.1538,-0.1539,-0.156,-0.1562,-0.1564,0,0,0,0,0,-0.1719,-0.1717,-0.171,-0.1705,-0.1675,-0.1659,-0.1655,-0.1636,-0.163,-0.1629,-0.1613,-0.16,-0.1571,-0.157,-0.1565,-0.1566,-0.1537,-0.1538,-0.1539,-0.1559,-0.1562,-0.1564,0,0,0,0,0,0,-0.1743,-0.1714,-0.1705,-0.1695,-0.1679,-0.1654,-0.1651,-0.164,-0.1626,-0.1624,-0.1602,-0.1597,-0.1588,-0.1576,-0.1575,-0.1562,-0.1553,-0.1552,-0.157,-0.1572,-0.1574,-0.1577,-0.1557,0,0,0,0,0,-0.1747,-0.1736,-0.1711,-0.1705,-0.1698,-0.1676,-0.1668,-0.1655,-0.1639,-0.1632,-0.1615,-0.16,-0.1587,-0.1579,-0.1566,-0.1558,-0.1553,-0.1557,-0.1559,-0.1561,-0.156,-0.1556,-0.1558,-0.1541,-0.1541,-0.1541,0,0,-0.1756,-0.1738,-0.1733,-0.1709,-0.1696,-0.1685,-0.1671,-0.166,-0.1652,-0.163,-0.1618,-0.1606,-0.1587,-0.1578,-0.1573,-0.1567,-0.1564,-0.1561,-0.1563,-0.1562,-0.1557,-0.1558,-0.156,-0.1541,-0.1541,-0.1541,0,0,-0.1765,-0.1751,-0.1744,-0.1731,-0.1711,-0.1697,-0.1695,-0.1672,-0.1663,-0.1651,-0.1634,-0.1625,-0.1603,-0.1591,-0.1581,-0.1587,-0.1575,-0.1584,-0.1594,-0.159,-0.1591,-0.1592,-0.1594,-0.1596,-0.1584,-0.1584,-0.1584,0,-0.1778,-0.1761,-0.1742,-0.1732,-0.1723,-0.1703,-0.1696,-0.1685,-0.1662,-0.1656,-0.165,-0.1623,-0.1609,-0.1597,-0.1598,-0.1592,-0.1589,-0.1586,-0.1593,-0.1593,-0.1594,-0.1596,-0.1597,-0.1585,-0.1585,-0.1585,-0.1585,0,-0.1778,-0.1767,-0.1764,-0.1742,-0.1732,-0.1724,-0.1704,-0.1696,-0.1685,-0.1671,-0.166,-0.1642,-0.1625,-0.1622,-0.161,-0.1608,-0.1605,-0.1597,-0.1587,-0.1597,-0.1599,-0.1599,-0.1587,-0.1586,-0.1586,-0.1586,0,0,-0.18,-0.1769,-0.1768,-0.1758,-0.1735,-0.1726,-0.1718,-0.1701,-0.1695,-0.168,-0.1673,-0.1656,-0.1647,-0.1637,-0.1624,-0.1621,-0.1627,-0.1612,-0.1612,-0.1616,-0.1624,-0.163,-0.1631,-0.1619,-0.1619,-0.1619,-0.1625,0,-0.1806,-0.1789,-0.1773,-0.1762,-0.1751,-0.1733,-0.1726,-0.1711,-0.1699,-0.1688,-0.1674,-0.1662,-0.1653,-0.1646,-0.1642,-0.1627,-0.1628,-0.1627,-0.1612,-0.1612,-0.1617,-0.1632,-0.1638,-0.1645,-0.1626,-0.1626,-0.1626,0,-0.1811,-0.1797,-0.1785,-0.1764,-0.1759,-0.1752,-0.1736,-0.1726,-0.171,-0.1701,-0.169,-0.1676,-0.1667,-0.1659,-0.1646,-0.1645,-0.1638,-0.163,-0.163,-0.1627,-0.1619,-0.163,-0.1646,-0.1647,-0.1626,-0.1626,-0.1626,0,-0.1828,-0.1807,-0.1797,-0.1789,-0.1764,-0.176,-0.1749,-0.1732,-0.1724,-0.171,-0.1704,-0.169,-0.1682,-0.1671,-0.1654,-0.165,-0.1643,-0.1634,-0.1635,-0.1636,-0.1634,-0.1634,-0.165,-0.163,-0.163,-0.163,-0.163,0,-0.1837,-0.183,-0.1804,-0.1798,-0.1791,-0.1772,-0.1765,-0.1753,-0.1738,-0.173,-0.1713,-0.1706,-0.1684,-0.1674,-0.1661,-0.1653,-0.1649,-0.1642,-0.1638,-0.1643,-0.1644,-0.1638,-0.1637,-0.1631,-0.1631,-0.1631,-0.1631,0,-0.1854,-0.1837,-0.1825,-0.1803,-0.1797,-0.1792,-0.1773,-0.1767,-0.1754,-0.1743,-0.174,-0.1719,-0.1707,-0.1689,-0.1671,-0.1663,-0.1656,-0.165,-0.1661,-0.1659,-0.1662,-0.1662,-0.1673,-0.1674,-0.1655,-0.1655,-0.1655,0,-0.1861,-0.1855,-0.1832,-0.1825,-0.1815,-0.1805,-0.1796,-0.1777,-0.1769,-0.175,-0.1747,-0.1733,-0.1721,-0.1702,-0.1686,-0.1672,-0.1666,-0.1671,-0.1664,-0.1669,-0.1666,-0.1666,-0.1666,-0.1673,-0.1673,-0.1673,-0.1673,0,-0.1873,-0.1865,-0.1853,-0.1839,-0.1829,-0.1817,-0.1803,-0.1799,-0.1778,-0.1769,-0.1757,-0.1747,-0.173,-0.1716,-0.1701,-0.169,-0.1678,-0.1676,-0.1676,-0.168,-0.1687,-0.1683,-0.1666,-0.1676,-0.1675,-0.1675,-0.1675,-0.1675,-0.1885,-0.188,-0.1863,-0.185,-0.1839,-0.1827,-0.182,-0.1807,-0.1795,-0.1779,-0.1769,-0.1757,-0.1741,-0.1719,-0.1709,-0.17,-0.1695,-0.1694,-0.1694,-0.1694,-0.1696,-0.1689,-0.1697,-0.1697,-0.1697,-0.1697,-0.1697,0,-0.1897,-0.1885,-0.1874,-0.1857,-0.1847,-0.1837,-0.1822,-0.1815,-0.1804,-0.1791,-0.1779,-0.1765,-0.1752,-0.1735,-0.1722,-0.1717,-0.1712,-0.1714,-0.1714,-0.1712,-0.1701,-0.1703,-0.1719,-0.1719,-0.1719,-0.1719,-0.1719,-0.1719,-0.1902,-0.1892,-0.1882,-0.1867,-0.1856,-0.1843,-0.1836,-0.1825,-0.1814,-0.1799,-0.1788,-0.1777,-0.1762,-0.1748,-0.1736,-0.1731,-0.1727,-0.1731,-0.1725,-0.1715,-0.1713,-0.1711,-0.1712,-0.173,-0.173,-0.1737,-0.1737,-0.1737]},{"header":{"parameterUnit":"m.s-1","parameterCategory":1,"la1":30.2991,"la2":30.254,"lo1":-89.0895,"lo2":-89.0444,"dy":0.0017,"dx":0.0017,"nx":28,"ny":28,"refTime":"2023-11-07T09:00:00:Z","depth":0,"parameterNumber":3,"parameterNumberName":"V-component_of_WINDS"},"data":[0,0,0,0,0,0,0,0,0,0,0,0,0,0,0,0,0,0,0,0,0,0,0,0,0,0,0,0,0,0,0,0,0,0,0,0,0,0,0,0,0,0,0,0,0,0,0,0,0,0,0,0,0,0,0,0,0,0,2.215,2.2151,0,2.2174,2.2175,2.2175,2.2157,2.2157,2.2156,2.2155,2.2177,2.2179,2.218,0,0,0,0,0,0,0,0,0,0,0,0,0,2.2091,2.2092,2.215,2.2151,2.2151,2.2174,2.2175,2.2175,2.2158,2.2157,2.2156,2.2155,2.2177,2.2179,2.218,0,0,0,0,0,0,0,0,0,0,0,0,0,2.2116,2.2092,2.215,2.2145,2.2145,2.2174,2.2175,2.2175,2.2158,2.2157,2.2156,2.2154,2.2177,2.2178,2.218,2.2215,0,0,2.2186,2.2187,0,0,0,0,0,0,0,0,2.2114,2.2118,2.2146,2.2146,2.2145,2.2162,2.2162,2.2188,2.2158,2.2153,2.2155,2.2154,2.2173,2.2175,2.2182,2.2216,2.2217,2.2186,2.2188,2.2188,2.2189,0,0,0,0,0,0,0,2.2113,2.2117,2.216,2.2146,2.2146,2.2142,2.2144,2.2167,2.2169,2.2153,2.2152,2.2155,2.2173,2.218,2.2182,2.2217,2.2186,2.2188,2.2189,2.219,2.2285,2.2287,0,0,0,0,0,0,2.2111,2.2116,2.2159,2.216,2.2127,2.2144,2.2147,2.2158,2.2169,2.2169,2.2156,2.2154,2.2177,2.218,2.2183,2.2227,2.2188,2.219,2.2191,2.2284,2.2286,2.2287,0,0,0,0,0,0,2.211,2.2116,2.2158,2.2138,2.2143,2.2146,2.2159,2.2159,2.2166,2.2171,2.2171,2.2163,2.2177,2.218,2.2208,2.2228,2.2191,2.2193,2.2282,2.2284,2.2286,2.2314,0,0,0,0,0,0,2.2109,2.2115,2.2128,2.2138,2.2144,2.2183,2.216,2.216,2.217,2.2168,2.2178,2.2178,2.2176,2.2206,2.221,2.223,2.2194,2.2281,2.2283,2.2286,2.2311,2.2317,2.2321,0,0,0,0,0,2.2107,2.2133,2.2129,2.2134,2.216,2.2184,2.2187,2.2184,2.2171,2.2185,2.2189,2.2178,2.2225,2.2209,2.2214,2.2234,2.2279,2.2282,2.2285,2.2309,2.2316,2.2321,0,0,0,0,0,0,2.2123,2.2134,2.2129,2.216,2.2172,2.2181,2.2197,2.2191,2.2205,2.2202,2.2198,2.2201,2.2231,2.2235,2.2217,2.227,2.225,2.2254,2.2266,2.2272,2.2277,2.2276,2.2196,0,0,0,0,0,2.2131,2.2149,2.2158,2.2184,2.2191,2.2193,2.2203,2.2201,2.2212,2.2216,2.2222,2.2232,2.225,2.2261,2.2277,2.2312,2.2315,2.2329,2.2334,2.2338,2.2342,2.2363,2.237,2.2297,2.2297,2.2297,0,0,2.2146,2.2155,2.2166,2.2188,2.2197,2.2217,2.2197,2.2218,2.2233,2.2219,2.2247,2.2251,2.2263,2.2296,2.231,2.23,2.2363,2.2342,2.2345,2.2346,2.2367,2.2374,2.238,2.2299,2.2299,2.2298,0,0,2.2185,2.2192,2.2217,2.2226,2.224,2.2242,2.2249,2.226,2.2263,2.2291,2.2282,2.23,2.2329,2.2339,2.2348,2.2395,2.2387,2.24,2.2426,2.2448,2.2454,2.2459,2.2478,2.2484,2.2404,2.2404,2.2404,0,2.2202,2.2231,2.223,2.2253,2.2264,2.2254,2.228,2.2289,2.2307,2.2315,2.2304,2.2344,2.2351,2.2387,2.2399,2.2406,2.2414,2.2399,2.2453,2.2458,2.2463,2.2481,2.2488,2.2406,2.2406,2.2406,2.2405,0,2.2253,2.2274,2.2292,2.2312,2.2325,2.2349,2.2352,2.2366,2.2363,2.2367,2.2398,2.2407,2.2426,2.2434,2.243,2.2471,2.2465,2.2453,2.2433,2.2472,2.2489,2.2495,2.2408,2.2408,2.2407,2.2407,0,0,2.23,2.2322,2.2329,2.2339,2.2356,2.2372,2.2397,2.2418,2.243,2.2444,2.2466,2.2493,2.2484,2.2494,2.2492,2.2511,2.2551,2.2498,2.2498,2.2509,2.2599,2.2608,2.2616,2.2546,2.2547,2.2548,2.2599,0,2.2341,2.2385,2.2386,2.2427,2.2448,2.2441,2.2463,2.2476,2.2481,2.25,2.2505,2.2526,2.2511,2.2518,2.2536,2.2542,2.2569,2.2538,2.2567,2.2568,2.2565,2.2624,2.2634,2.2681,2.2605,2.2606,2.2607,0,2.2393,2.2412,2.2455,2.2472,2.2481,2.2501,2.2522,2.2539,2.2555,2.2558,2.2571,2.2568,2.2595,2.2574,2.2612,2.2591,2.2603,2.2608,2.261,2.2613,2.259,2.263,2.2695,2.2703,2.2617,2.2616,2.2615,0,2.2426,2.2461,2.2493,2.2501,2.2521,2.2536,2.2545,2.256,2.2573,2.2592,2.2601,2.2621,2.2633,2.2649,2.2652,2.2636,2.2691,2.267,2.2695,2.2695,2.2707,2.2706,2.2776,2.2713,2.2713,2.2713,2.2712,0,2.2472,2.2499,2.2508,2.2527,2.2559,2.2561,2.2592,2.2599,2.2613,2.2635,2.263,2.265,2.2652,2.2673,2.2676,2.2708,2.2713,2.2717,2.2717,2.2718,2.2718,2.2726,2.2723,2.2714,2.2714,2.2714,2.2713,0,2.2513,2.252,2.2554,2.2572,2.2577,2.26,2.2615,2.2634,2.264,2.2668,2.2674,2.2684,2.2709,2.2714,2.2742,2.2744,2.2784,2.278,2.2779,2.2779,2.2805,2.2803,2.2883,2.2894,2.2823,2.2823,2.2824,0,2.2542,2.2564,2.2585,2.26,2.261,2.2633,2.2648,2.2652,2.2668,2.269,2.2707,2.2732,2.2752,2.2793,2.2803,2.2826,2.2824,2.285,2.2827,2.2828,2.2826,2.2826,2.2829,2.2855,2.2855,2.2856,2.2857,0,2.2594,2.2597,2.2619,2.2644,2.2662,2.2681,2.2699,2.2711,2.2718,2.2736,2.2763,2.2779,2.2811,2.2836,2.2861,2.287,2.2865,2.2864,2.2872,2.2873,2.2872,2.2875,2.2793,2.2862,2.2862,2.2861,2.2861,2.2861,2.2631,2.2651,2.267,2.2696,2.271,2.2728,2.2749,2.2759,2.2781,2.2808,2.2809,2.284,2.2858,2.289,2.2902,2.2926,2.2917,2.2927,2.293,2.2933,2.2936,2.2868,2.293,2.293,2.2929,2.2929,2.2929,0,2.2684,2.2697,2.272,2.2747,2.2768,2.2764,2.2784,2.2802,2.2829,2.2847,2.2869,2.2901,2.2927,2.294,2.2967,2.2984,2.2982,2.299,2.299,2.2993,2.2941,2.2933,2.2991,2.2991,2.2991,2.2991,2.2991,2.2991,2.2714,2.2749,2.2755,2.2798,2.2811,2.2841,2.2854,2.2871,2.2886,2.2924,2.2946,2.2955,2.2972,2.3,2.3024,2.3028,2.3038,2.3048,2.305,2.3002,2.2996,2.299,2.2982,2.305,2.305,2.3099,2.31,2.31]}]]